Terug naar catalogus

FENGYUN 1C DEB

ActiefPO
NORAD 31088·DEBRIS·🇨🇳 China

Gelanceerd May 10, 1999 vanaf Taiyuan Satellite Launch Center

Loading…

Volgende Passages (komende 24 uur)

TLE

VersSource: Space-Track

Epoch: Sep 12, 2026, 17:10 UTC

1 31088U 99025BGJ 26255.71576588  .00002286  00000-0  89269-3 0  9997
2 31088  99.3963 342.4981 0026295 355.8144 157.0214 14.30545567  4516

Volg FENGYUN 1C DEB in realtime met AllMySat

Download on the App Store